[[{"header":{"parameterUnit":"m.s-1","parameterCategory":1,"la1":30.2991,"la2":30.254,"lo1":-89.0895,"lo2":-89.0444,"dy":0.0017,"dx":0.0017,"nx":28,"ny":28,"refTime":"2026-02-06T03:00:00:Z","depth":0,"parameterNumber":2,"parameterNumberName":"U-component_of_WINDS"},"data":[0,0,0,0,0,0,0,0,0,0,0,0,0,0,0,0,0,0,0,0,0,0,0,0,0,0,0,0,0,0,0,0,0,0,0,0,0,0,0,0,0,0,0,0,0,0,0,0,0,0,0,0,0,0,0,0,0,0,4.4356,4.4357,0,4.4417,4.4418,4.4419,4.4389,4.4388,4.4386,4.4385,4.4448,4.4451,4.4454,0,0,0,0,0,0,0,0,0,0,0,0,0,4.4216,4.4218,4.4356,4.4357,4.4358,4.4417,4.4418,4.4419,4.439,4.4388,4.4386,4.4384,4.4447,4.4451,4.4454,0,0,0,0,0,0,0,0,0,0,0,0,0,4.4277,4.4219,4.4356,4.435,4.435,4.4417,4.4418,4.4419,4.439,4.4388,4.4385,4.4383,4.4446,4.445,4.4455,4.4531,0,0,4.4469,4.4471,0,0,0,0,0,0,0,0,4.4273,4.4282,4.435,4.4351,4.4351,4.4393,4.4392,4.4457,4.4391,4.4375,4.4385,4.4382,4.4432,4.4437,4.4454,4.4534,4.4537,4.447,4.4473,4.4475,4.4476,0,0,0,0,0,0,0,4.4269,4.4279,4.438,4.4351,4.4352,4.4345,4.4351,4.4404,4.4416,4.4376,4.4374,4.4382,4.4431,4.445,4.4455,4.4538,4.447,4.4474,4.4477,4.4479,4.4687,4.469,0,0,0,0,0,0,4.4265,4.4276,4.4378,4.4382,4.4306,4.435,4.4356,4.4382,4.4415,4.4418,4.4384,4.438,4.4443,4.445,4.4458,4.4551,4.4475,4.4479,4.4482,4.4685,4.4688,4.4691,0,0,0,0,0,0,4.4262,4.4274,4.4376,4.4329,4.4341,4.4355,4.4384,4.4385,4.4403,4.4421,4.4423,4.44,4.4441,4.4451,4.4514,4.4553,4.4481,4.4486,4.4681,4.4686,4.4689,4.4738,0,0,0,0,0,0,4.4258,4.4274,4.4302,4.4329,4.4344,4.4431,4.4386,4.4387,4.4411,4.4407,4.4437,4.4439,4.444,4.4507,4.4519,4.4558,4.4489,4.4678,4.4683,4.4688,4.4733,4.4743,4.4752,0,0,0,0,0,4.4253,4.4313,4.4304,4.4316,4.4379,4.4433,4.4441,4.444,4.4414,4.4443,4.4456,4.4439,4.4547,4.4514,4.4527,4.4568,4.4676,4.4682,4.4688,4.4729,4.4741,4.4752,0,0,0,0,0,0,4.4289,4.4316,4.4306,4.4376,4.4403,4.4428,4.4464,4.4453,4.4488,4.4482,4.448,4.4488,4.4553,4.4567,4.453,4.4645,4.4607,4.4616,4.4634,4.4646,4.4655,4.4651,4.4493,0,0,0,0,0,4.4305,4.4346,4.4367,4.4427,4.4441,4.4451,4.4474,4.4471,4.4499,4.451,4.4526,4.4554,4.4594,4.4621,4.4659,4.4735,4.4742,4.477,4.4779,4.4787,4.4795,4.4839,4.4852,4.4711,4.4711,4.4711,0,0,4.4338,4.4358,4.4384,4.4435,4.4455,4.4498,4.446,4.4507,4.4539,4.4517,4.4578,4.4591,4.4622,4.4693,4.4724,4.4706,4.4836,4.4795,4.4801,4.4805,4.4846,4.486,4.4871,4.4715,4.4714,4.4714,0,0,4.4421,4.444,4.4493,4.4514,4.4546,4.4552,4.4565,4.4593,4.4601,4.4662,4.4647,4.4686,4.4755,4.4778,4.4799,4.4895,4.4881,4.4907,4.4957,4.4999,4.501,4.502,4.5056,4.5068,4.4915,4.4915,4.4915,0,4.4459,4.4523,4.4521,4.457,4.4594,4.4576,4.4631,4.4652,4.4694,4.4711,4.469,4.4778,4.4797,4.4874,4.4898,4.4915,4.4931,4.4904,4.5009,4.5019,4.5028,4.5062,4.5075,4.4918,4.4918,4.4917,4.4917,0,4.4568,4.4613,4.4652,4.4694,4.4722,4.4774,4.4781,4.481,4.4806,4.4815,4.4879,4.4902,4.4946,4.4964,4.496,4.5041,4.5029,4.5009,4.497,4.5045,4.5076,4.5089,4.4922,4.4921,4.492,4.492,0,0,4.4674,4.4716,4.4731,4.4751,4.4785,4.4821,4.4872,4.4915,4.4941,4.4971,4.5015,4.5076,4.5058,4.5082,4.508,4.5118,4.5194,4.5093,4.5093,4.5112,4.5288,4.5304,4.5318,4.5185,4.5188,4.519,4.5286,0,4.4761,4.485,4.4852,4.4935,4.4978,4.4963,4.5008,4.5035,4.5046,4.5084,4.5096,4.514,4.5112,4.5127,4.5163,4.5177,4.523,4.517,4.5228,4.523,4.5221,4.5335,4.5351,4.544,4.5298,4.53,4.5301,0,4.4873,4.4908,4.4996,4.5027,4.5045,4.5085,4.5126,4.5162,4.5194,4.5199,4.5227,4.5221,4.5275,4.5236,4.5311,4.5271,4.5295,4.5306,4.5309,4.5315,4.527,4.5345,4.5468,4.5482,4.5321,4.5319,4.5318,0,4.4943,4.5013,4.5074,4.5092,4.5129,4.5158,4.5175,4.5204,4.523,4.5266,4.5284,4.5326,4.5349,4.5382,4.5388,4.5358,4.5465,4.5425,4.5472,4.5472,4.5495,4.5493,4.5625,4.5509,4.5509,4.5509,4.5509,0,4.504,4.5095,4.5107,4.5145,4.5206,4.5208,4.5269,4.5284,4.531,4.5352,4.5342,4.5381,4.5386,4.5428,4.5433,4.5496,4.5506,4.5513,4.5514,4.5515,4.5514,4.553,4.5525,4.5512,4.5512,4.5511,4.551,0,4.5129,4.5139,4.5206,4.5236,4.5245,4.5289,4.5316,4.5353,4.5363,4.5417,4.5429,4.5446,4.5494,4.5504,4.5561,4.5564,4.564,4.5634,4.563,4.5629,4.5676,4.5672,4.5824,4.5845,4.5714,4.5715,4.5716,0,4.519,4.5232,4.5268,4.5295,4.5314,4.5357,4.5385,4.5389,4.5419,4.5459,4.5492,4.5539,4.5577,4.5656,4.5674,4.5718,4.5714,4.5764,4.572,4.5721,4.5716,4.5714,4.5719,4.5773,4.5774,4.5775,4.5776,0,4.5299,4.5303,4.5342,4.5385,4.5419,4.5452,4.5484,4.5507,4.5516,4.555,4.56,4.563,4.5689,4.5737,4.5782,4.58,4.5791,4.579,4.5803,4.5804,4.5801,4.5805,4.5654,4.5786,4.5785,4.5784,4.5784,4.5783,4.5377,4.5414,4.5446,4.5491,4.5516,4.5547,4.5584,4.56,4.5641,4.569,4.569,4.5745,4.5778,4.5837,4.5858,4.5902,4.5887,4.5906,4.5911,4.5916,4.5921,4.5793,4.591,4.591,4.591,4.591,4.5909,0,4.5486,4.5506,4.5548,4.5594,4.5631,4.5618,4.5654,4.5685,4.5734,4.5765,4.5803,4.5862,4.5909,4.5931,4.5978,4.6009,4.6006,4.6021,4.602,4.6024,4.5931,4.5915,4.6023,4.6023,4.6023,4.6023,4.6023,4.6023,4.5548,4.5611,4.5619,4.5695,4.5714,4.5768,4.579,4.5819,4.5844,4.591,4.5949,4.5963,4.5992,4.6041,4.6084,4.609,4.6108,4.6126,4.613,4.6042,4.6031,4.602,4.6005,4.613,4.613,4.6219,4.622,4.6221]},{"header":{"parameterUnit":"m.s-1","parameterCategory":1,"la1":30.2991,"la2":30.254,"lo1":-89.0895,"lo2":-89.0444,"dy":0.0017,"dx":0.0017,"nx":28,"ny":28,"refTime":"2026-02-06T03:00:00:Z","depth":0,"parameterNumber":3,"parameterNumberName":"V-component_of_WINDS"},"data":[0,0,0,0,0,0,0,0,0,0,0,0,0,0,0,0,0,0,0,0,0,0,0,0,0,0,0,0,0,0,0,0,0,0,0,0,0,0,0,0,0,0,0,0,0,0,0,0,0,0,0,0,0,0,0,0,0,0,-3.6614,-3.6615,0,-3.6717,-3.6718,-3.672,-3.675,-3.6749,-3.6749,-3.6748,-3.6852,-3.6855,-3.6858,0,0,0,0,0,0,0,0,0,0,0,0,0,-3.6442,-3.6445,-3.6614,-3.6615,-3.6616,-3.6717,-3.6718,-3.672,-3.675,-3.6749,-3.6749,-3.6748,-3.6851,-3.6855,-3.6858,0,0,0,0,0,0,0,0,0,0,0,0,0,-3.6528,-3.6446,-3.6613,-3.6644,-3.6647,-3.6717,-3.6718,-3.672,-3.675,-3.6749,-3.6748,-3.6748,-3.6849,-3.6854,-3.6859,-3.6905,0,0,-3.6874,-3.6876,0,0,0,0,0,0,0,0,-3.6523,-3.6534,-3.6638,-3.6642,-3.6646,-3.672,-3.6696,-3.6782,-3.675,-3.6711,-3.6748,-3.6747,-3.6808,-3.6817,-3.6838,-3.691,-3.6915,-3.6874,-3.6877,-3.6879,-3.6881,0,0,0,0,0,0,0,-3.6517,-3.653,-3.6655,-3.6639,-3.6644,-3.6652,-3.6663,-3.6712,-3.6763,-3.6714,-3.6717,-3.6729,-3.681,-3.6833,-3.684,-3.6916,-3.6874,-3.6879,-3.6882,-3.6883,-3.7035,-3.7036,0,0,0,0,0,0,-3.6506,-3.6525,-3.6651,-3.6658,-3.6581,-3.6656,-3.6668,-3.6697,-3.6762,-3.6772,-3.6729,-3.673,-3.6825,-3.6835,-3.6844,-3.6904,-3.6879,-3.6884,-3.6887,-3.7033,-3.7035,-3.7036,0,0,0,0,0,0,-3.6502,-3.6517,-3.6647,-3.6592,-3.6609,-3.6659,-3.6691,-3.6699,-3.6722,-3.6774,-3.6783,-3.6743,-3.6825,-3.6837,-3.6891,-3.6908,-3.6886,-3.6891,-3.7032,-3.7034,-3.7035,-3.7024,0,0,0,0,0,0,-3.6497,-3.6516,-3.6533,-3.6592,-3.6612,-3.6692,-3.6692,-3.6702,-3.6731,-3.6732,-3.6789,-3.6798,-3.6825,-3.6883,-3.6895,-3.6915,-3.6894,-3.7031,-3.7033,-3.7035,-3.7023,-3.7025,-3.7027,0,0,0,0,0,-3.6491,-3.6525,-3.6534,-3.6549,-3.6636,-3.6693,-3.6704,-3.6735,-3.6732,-3.675,-3.6784,-3.6796,-3.6904,-3.6888,-3.6902,-3.6923,-3.703,-3.7032,-3.7035,-3.7022,-3.7024,-3.7026,0,0,0,0,0,0,-3.6465,-3.6533,-3.6544,-3.6598,-3.664,-3.6698,-3.6722,-3.6737,-3.6779,-3.6779,-3.6816,-3.6828,-3.6879,-3.6907,-3.6888,-3.6973,-3.6968,-3.6973,-3.6953,-3.6956,-3.6958,-3.695,-3.6898,0,0,0,0,0,-3.6466,-3.6508,-3.6564,-3.6606,-3.6627,-3.6671,-3.6697,-3.6718,-3.6762,-3.678,-3.6817,-3.6859,-3.6903,-3.6931,-3.6974,-3.7027,-3.7041,-3.7049,-3.7051,-3.7052,-3.7056,-3.7088,-3.7093,-3.7044,-3.7044,-3.7044,0,0,-3.6468,-3.651,-3.6533,-3.6603,-3.6637,-3.6679,-3.6685,-3.6729,-3.6761,-3.6786,-3.6839,-3.6869,-3.6918,-3.6972,-3.6998,-3.6997,-3.7073,-3.7055,-3.7056,-3.7059,-3.7091,-3.7096,-3.71,-3.7046,-3.7045,-3.7045,0,0,-3.6493,-3.6528,-3.6568,-3.6604,-3.6657,-3.6687,-3.6696,-3.6753,-3.6774,-3.6829,-3.6849,-3.6887,-3.6961,-3.6997,-3.7024,-3.7066,-3.7079,-3.7079,-3.7088,-3.7119,-3.7123,-3.7127,-3.7143,-3.7148,-3.7083,-3.7083,-3.7083,0,-3.6487,-3.6552,-3.6587,-3.6631,-3.6661,-3.6688,-3.6729,-3.6761,-3.6825,-3.6846,-3.6844,-3.694,-3.6974,-3.7038,-3.7049,-3.707,-3.7083,-3.7072,-3.712,-3.7124,-3.7128,-3.7143,-3.7149,-3.7082,-3.7082,-3.7083,-3.7083,0,-3.6544,-3.6589,-3.6615,-3.6678,-3.6712,-3.6753,-3.6795,-3.6825,-3.6844,-3.6874,-3.693,-3.6973,-3.7027,-3.7044,-3.7061,-3.7111,-3.7108,-3.7113,-3.7108,-3.7132,-3.7147,-3.7153,-3.7082,-3.7082,-3.7082,-3.7082,0,0,-3.6553,-3.6638,-3.6647,-3.6677,-3.6739,-3.6774,-3.6818,-3.6872,-3.6897,-3.6941,-3.698,-3.7043,-3.7049,-3.708,-3.7103,-3.713,-3.7162,-3.7131,-3.7133,-3.7136,-3.7221,-3.7217,-3.7223,-3.7171,-3.7173,-3.7174,-3.7217,0,-3.6586,-3.6667,-3.6701,-3.6766,-3.6809,-3.6836,-3.6875,-3.6917,-3.6947,-3.6988,-3.7021,-3.7066,-3.7069,-3.7088,-3.7117,-3.7152,-3.7179,-3.7149,-3.7208,-3.7209,-3.7194,-3.7231,-3.7227,-3.7266,-3.7223,-3.7224,-3.7225,0,-3.6635,-3.6682,-3.6751,-3.6811,-3.683,-3.6864,-3.6917,-3.6956,-3.7005,-3.7025,-3.7062,-3.7084,-3.7132,-3.7125,-3.7192,-3.7171,-3.7197,-3.7219,-3.7221,-3.7227,-3.7218,-3.7239,-3.7279,-3.7285,-3.7234,-3.7233,-3.7233,0,-3.6636,-3.6716,-3.6769,-3.6793,-3.6864,-3.6887,-3.6918,-3.6967,-3.6998,-3.7044,-3.7065,-3.7116,-3.7144,-3.7183,-3.7219,-3.721,-3.7283,-3.7279,-3.7302,-3.7301,-3.7315,-3.7314,-3.736,-3.7332,-3.7332,-3.7331,-3.7331,0,-3.6669,-3.6711,-3.677,-3.6803,-3.6851,-3.689,-3.6937,-3.6969,-3.7013,-3.7052,-3.7079,-3.7115,-3.716,-3.7202,-3.723,-3.7283,-3.7295,-3.7313,-3.732,-3.7311,-3.7308,-3.7328,-3.7326,-3.7333,-3.7333,-3.7332,-3.7332,0,-3.6678,-3.6719,-3.6779,-3.6842,-3.6859,-3.6891,-3.6945,-3.6978,-3.701,-3.706,-3.7074,-3.7125,-3.7176,-3.7216,-3.7282,-3.7301,-3.7357,-3.7364,-3.7341,-3.7344,-3.7366,-3.7363,-3.7426,-3.7437,-3.74,-3.7401,-3.7401,0,-3.6696,-3.673,-3.6797,-3.6826,-3.6857,-3.6903,-3.6935,-3.6976,-3.7009,-3.7069,-3.7095,-3.7149,-3.7194,-3.7275,-3.7318,-3.737,-3.7378,-3.7397,-3.7386,-3.7377,-3.738,-3.7378,-3.7382,-3.7398,-3.7398,-3.7398,-3.7399,0,-3.6725,-3.6745,-3.6791,-3.6846,-3.6884,-3.6928,-3.6973,-3.6995,-3.7044,-3.708,-3.7134,-3.7169,-3.7239,-3.7292,-3.7349,-3.738,-3.7398,-3.7402,-3.741,-3.7401,-3.7386,-3.7396,-3.7345,-3.74,-3.74,-3.74,-3.74,-3.74,-3.674,-3.6772,-3.6825,-3.6876,-3.6915,-3.6957,-3.6992,-3.7029,-3.7075,-3.7136,-3.7157,-3.7213,-3.7264,-3.7342,-3.7375,-3.7419,-3.742,-3.7431,-3.7434,-3.7436,-3.7436,-3.738,-3.7429,-3.7429,-3.7429,-3.7429,-3.7429,0,-3.6771,-3.6807,-3.6854,-3.6918,-3.6958,-3.6973,-3.7024,-3.7057,-3.7107,-3.7153,-3.7198,-3.7261,-3.7314,-3.7362,-3.7417,-3.7444,-3.7454,-3.7457,-3.7455,-3.7463,-3.7432,-3.742,-3.7448,-3.7448,-3.7448,-3.7448,-3.7448,-3.7448,-3.6792,-3.6847,-3.6873,-3.6949,-3.6985,-3.7041,-3.7069,-3.7108,-3.7146,-3.7216,-3.726,-3.7292,-3.7339,-3.7399,-3.7448,-3.7461,-3.748,-3.7482,-3.7497,-3.7467,-3.7464,-3.7462,-3.7451,-3.7486,-3.7486,-3.7524,-3.7524,-3.7524]}]]